Radiation Dose at Monitoring Post of Fukushima Daini Nuclear Power Station
Date,Time,MP-1(microSv/h),MP-2(microSv/h),MP-3(microSv/h),MP-4(microSv/h),MP-5(microSv/h),MP-6(microSv/h),MP-7(microSv/h),Wind Direction,Wind Velocity(m/s),Rain
2017/05/20,00:00,0.374,0.226,0.389,0.356,0.327,0.188,0.151,south-southwest,4.5,No
2017/05/20,00:10,0.369,0.227,0.389,0.358,0.326,0.188,0.152,south-southwest,3.3,No
2017/05/20,00:20,0.374,0.226,0.389,0.357,0.328,0.188,0.150,west-southwest,2.4,No
2017/05/20,00:30,0.372,0.226,0.387,0.358,0.327,0.187,0.151,west-southwest,2.5,No
2017/05/20,00:40,0.374,0.226,0.387,0.356,0.327,0.188,0.151,west,3.2,No
2017/05/20,00:50,0.371,0.227,0.389,0.362,0.325,0.187,0.150,west,3.9,No
2017/05/20,01:00,0.372,0.226,0.388,0.357,0.328,0.187,0.151,west-southwest,4.5,No
2017/05/20,01:10,0.373,0.225,0.388,0.360,0.326,0.188,0.151,west-southwest,3.9,No
2017/05/20,01:20,0.373,0.226,0.386,0.358,0.327,0.189,0.151,west-southwest,2.2,No
2017/05/20,01:30,0.372,0.226,0.390,0.358,0.326,0.189,0.151,west-southwest,2.5,No
2017/05/20,01:40,0.372,0.228,0.387,0.358,0.328,0.188,0.151,west-southwest,1.4,No
2017/05/20,01:50,0.371,0.225,0.390,0.358,0.328,0.188,0.151,west-southwest,1.2,No
2017/05/20,02:00,0.372,0.227,0.387,0.357,0.327,0.189,0.151,west,0.6,No
2017/05/20,02:10,0.374,0.226,0.387,0.356,0.327,0.188,0.151,west-northwest,1.6,No
2017/05/20,02:20,0.371,0.227,0.388,0.359,0.326,0.189,0.152,west,4.0,No
2017/05/20,02:30,0.373,0.226,0.388,0.357,0.328,0.188,0.150,west-northwest,3.0,No
2017/05/20,02:40,0.372,0.227,0.388,0.359,0.326,0.188,0.150,west,3.1,No
2017/05/20,02:50,0.373,0.226,0.386,0.356,0.327,0.189,0.151,west,1.9,No
2017/05/20,03:00,0.372,0.227,0.389,0.359,0.325,0.188,0.151,west,2.2,No
2017/05/20,03:10,0.373,0.227,0.386,0.357,0.328,0.189,0.151,west-northwest,2.3,No
2017/05/20,03:20,0.373,0.225,0.390,0.358,0.325,0.189,0.151,west,1.0,No
2017/05/20,03:30,0.373,0.226,0.387,0.359,0.327,0.187,0.152,east-northeast,0.5,No
2017/05/20,03:40,0.374,0.226,0.388,0.359,0.326,0.188,0.151,south-southwest,1.5,No
2017/05/20,03:50,0.372,0.227,0.388,0.360,0.327,0.189,0.150,south,0.5,No
2017/05/20,04:00,0.374,0.226,0.385,0.358,0.327,0.188,0.151,southeast,0.9,No
2017/05/20,04:10,0.372,0.226,0.390,0.359,0.327,0.188,0.151,-,CALM,No
2017/05/20,04:20,0.372,0.227,0.388,0.356,0.329,0.189,0.151,west-southwest,1.5,No
2017/05/20,04:30,0.372,0.226,0.390,0.358,0.326,0.188,0.151,southwest,1.4,No
2017/05/20,04:40,0.372,0.227,0.389,0.358,0.328,0.189,0.152,west-southwest,1.1,No
2017/05/20,04:50,0.374,0.228,0.388,0.357,0.326,0.187,0.150,-,CALM,No
2017/05/20,05:00,0.372,0.227,0.390,0.360,0.327,0.187,0.151,north,0.6,No
2017/05/20,05:10,0.373,0.226,0.388,0.356,0.328,0.188,0.151,northeast,0.9,No
2017/05/20,05:20,0.372,0.225,0.390,0.359,0.326,0.188,0.151,northeast,1.0,No
2017/05/20,05:30,0.373,0.227,0.387,0.359,0.328,0.187,0.151,-,CALM,No
2017/05/20,05:40,0.371,0.226,0.387,0.358,0.325,0.189,0.152,-,CALM,No
2017/05/20,05:50,0.371,0.227,0.389,0.360,0.327,0.187,0.151,west-northwest,1.7,No
2017/05/20,06:00,0.372,0.225,0.387,0.357,0.325,0.187,0.150,northwest,1.6,No
2017/05/20,06:10,0.371,0.225,0.390,0.358,0.324,0.188,0.151,-,CALM,No
2017/05/20,06:20,0.375,0.226,0.386,0.357,0.327,0.189,0.150,west-southwest,0.5,No
2017/05/20,06:30,0.373,0.224,0.390,0.359,0.324,0.189,0.150,west-southwest,0.8,No
2017/05/20,06:40,0.372,0.226,0.388,0.357,0.326,0.188,0.151,west-southwest,0.8,No
2017/05/20,06:50,0.371,0.226,0.390,0.359,0.326,0.188,0.150,west-southwest,1.9,No
2017/05/20,07:00,0.372,0.223,0.385,0.356,0.325,0.188,0.150,west,2.2,No
2017/05/20,07:10,0.370,0.225,0.384,0.353,0.328,0.187,0.151,west-southwest,2.1,No
2017/05/20,07:20,0.372,0.226,0.387,0.358,0.324,0.189,0.151,southwest,2.0,No
2017/05/20,07:30,0.372,0.225,0.387,0.359,0.327,0.188,0.149,southwest,1.8,No
2017/05/20,07:40,0.369,0.225,0.382,0.355,0.326,0.189,0.150,west-southwest,1.9,No
2017/05/20,07:50,0.373,0.227,0.383,0.353,0.325,0.188,0.152,southwest,2.0,No
2017/05/20,08:00,0.371,0.225,0.382,0.356,0.328,0.188,0.151,south-southwest,1.7,No
2017/05/20,08:10,0.368,0.224,0.386,0.358,0.325,0.188,0.150,southwest,2.0,No
2017/05/20,08:20,0.373,0.226,0.388,0.356,0.324,0.188,0.150,southwest,1.9,No
2017/05/20,08:30,0.372,0.228,0.385,0.355,0.328,0.188,0.151,south-southwest,2.0,No
2017/05/20,08:40,0.370,0.225,0.388,0.354,0.328,0.188,0.151,south-southwest,2.6,No
2017/05/20,08:50,0.368,0.225,0.389,0.354,0.325,0.188,0.150,south,1.7,No
2017/05/20,09:00,0.372,0.226,0.388,0.356,0.324,0.189,0.150,south-southeast,2.2,No
2017/05/20,09:10,0.371,0.227,0.388,0.356,0.323,0.188,0.151,south-southeast,2.5,No
2017/05/20,09:20,0.369,0.226,0.390,0.357,0.324,0.189,0.152,south-southeast,2.8,No
2017/05/20,09:30,0.368,0.225,0.387,0.355,0.330,0.189,0.152,south-southeast,2.6,No
2017/05/20,09:40,0.372,0.224,0.387,0.356,0.327,0.187,0.150,east-southeast,2.8,No
2017/05/20,09:50,0.371,0.226,0.390,0.356,0.327,0.188,0.150,east-southeast,2.8,No
2017/05/20,10:00,0.371,0.227,0.389,0.356,0.325,0.188,0.152,southeast,3.1,No
2017/05/20,10:10,0.370,0.225,0.387,0.357,0.324,0.188,0.152,southeast,4.6,No
2017/05/20,10:20,0.375,0.224,0.385,0.355,0.324,0.188,0.151,southeast,4.8,No
2017/05/20,10:30,0.373,0.227,0.383,0.357,0.324,0.187,0.151,south-southeast,5.0,No
2017/05/20,10:40,0.369,0.228,0.385,0.357,0.328,0.189,0.153,south,5.0,No
2017/05/20,10:50,0.368,0.227,0.386,0.357,0.329,0.188,0.151,south,5.6,No
2017/05/20,11:00,0.369,0.225,0.384,0.358,0.328,0.188,0.151,south,5.4,No
2017/05/20,11:10,0.369,0.226,0.383,0.355,0.327,0.188,0.151,south,6.4,No
2017/05/20,11:20,0.368,0.226,0.385,0.356,0.328,0.189,0.149,south,6.0,No
2017/05/20,11:30,0.368,0.225,0.386,0.357,0.324,0.189,0.151,south,6.2,No
2017/05/20,11:40,0.368,0.226,0.387,0.358,0.326,0.189,0.152,south,7.3,No
2017/05/20,11:50,0.369,0.229,0.387,0.357,0.325,0.188,0.151,south,7.3,No
2017/05/20,12:00,0.368,0.228,0.388,0.359,0.326,0.188,0.151,south,8.4,No
2017/05/20,12:10,0.369,0.229,0.387,0.357,0.326,0.188,0.150,south,9.8,No
2017/05/20,12:20,0.370,0.227,0.387,0.357,0.324,0.188,0.151,south,9.0,No
2017/05/20,12:30,0.373,0.226,0.389,0.358,0.326,0.188,0.152,south-southwest,9.0,No
2017/05/20,12:40,0.376,0.225,0.388,0.358,0.326,0.189,0.151,south-southwest,8.3,No
2017/05/20,12:50,0.376,0.227,0.389,0.358,0.326,0.189,0.150,south,10.1,No
2017/05/20,13:00,0.374,0.225,0.391,0.359,0.327,0.189,0.150,south,9.5,No
2017/05/20,13:10,0.373,0.226,0.390,0.359,0.328,0.188,0.152,south,9.5,No
2017/05/20,13:20,0.371,0.226,0.388,0.360,0.327,0.189,0.152,south,8.4,No
2017/05/20,13:30,0.369,0.227,0.388,0.359,0.326,0.190,0.151,south,8.7,No
2017/05/20,13:40,0.371,0.226,0.389,0.359,0.327,0.189,0.150,south,9.3,No
2017/05/20,13:50,0.369,0.226,0.388,0.359,0.327,0.189,0.152,south,9.8,No
2017/05/20,14:00,0.369,0.226,0.386,0.358,0.326,0.190,0.151,south,10.3,No
2017/05/20,14:10,0.369,0.228,0.386,0.358,0.326,0.190,0.152,south,9.8,No
2017/05/20,14:20,0.376,0.229,0.387,0.358,0.325,0.189,0.151,south,9.4,No
2017/05/20,14:30,0.373,0.228,0.387,0.359,0.327,0.189,0.152,south,9.8,No
2017/05/20,14:40,0.375,0.228,0.388,0.356,0.325,0.189,0.153,south,10.3,No
2017/05/20,14:50,0.371,0.226,0.388,0.360,0.326,0.190,0.150,south,10.8,No
2017/05/20,15:00,0.370,0.226,0.387,0.362,0.325,0.190,0.151,south,10.4,No
2017/05/20,15:10,0.375,0.225,0.386,0.362,0.326,0.189,0.152,south,10.3,No
2017/05/20,15:20,0.375,0.228,0.388,0.359,0.326,0.188,0.151,south,10.1,No
2017/05/20,15:30,0.372,0.229,0.385,0.364,0.326,0.189,0.151,south,9.6,No
2017/05/20,15:40,0.373,0.228,0.386,0.363,0.324,0.190,0.153,south,8.9,No
2017/05/20,15:50,0.376,0.225,0.390,0.360,0.325,0.189,0.151,south,9.2,No
2017/05/20,16:00,0.372,0.229,0.392,0.363,0.326,0.189,0.152,south,8.6,No
2017/05/20,16:10,0.371,0.228,0.389,0.364,0.323,0.189,0.153,south,9.1,No
2017/05/20,16:20,0.377,0.227,0.389,0.359,0.324,0.190,0.151,south,9.5,No
2017/05/20,16:30,0.374,0.228,0.394,0.361,0.329,0.189,0.153,south,10.4,No
2017/05/20,16:40,0.370,0.228,0.390,0.363,0.331,0.191,0.153,south,8.7,No
2017/05/20,16:50,0.373,0.227,0.388,0.359,0.328,0.188,0.153,south,9.5,No
2017/05/20,17:00,0.374,0.230,0.394,0.362,0.326,0.189,0.153,south,9.1,No
2017/05/20,17:10,0.373,0.228,0.391,0.363,0.325,0.190,0.151,south,9.1,No
2017/05/20,17:20,0.373,0.228,0.389,0.360,0.326,0.189,0.153,south,9.0,No
2017/05/20,17:30,0.375,0.228,0.393,0.362,0.331,0.188,0.153,south,8.6,No
2017/05/20,17:40,0.370,0.226,0.391,0.363,0.329,0.190,0.151,south,8.4,No
2017/05/20,17:50,0.375,0.228,0.388,0.358,0.326,0.188,0.153,south-southwest,7.2,No
2017/05/20,18:00,0.375,0.229,0.393,0.363,0.328,0.188,0.152,south-southwest,6.3,No
2017/05/20,18:10,0.371,0.227,0.391,0.361,0.330,0.190,0.152,south-southwest,6.0,No
2017/05/20,18:20,0.377,0.229,0.389,0.360,0.327,0.189,0.152,south-southwest,5.9,No
2017/05/20,18:30,0.374,0.226,0.392,0.363,0.331,0.190,0.152,south-southwest,4.8,No
2017/05/20,18:40,0.372,0.229,0.388,0.358,0.329,0.189,0.152,south-southwest,2.7,No
2017/05/20,18:50,0.375,0.227,0.393,0.363,0.327,0.189,0.152,south-southwest,2.5,No
2017/05/20,19:00,0.372,0.229,0.390,0.363,0.332,0.188,0.152,south,3.0,No
2017/05/20,19:10,0.375,0.227,0.391,0.360,0.327,0.189,0.152,south-southwest,3.0,No
2017/05/20,19:20,0.371,0.229,0.393,0.363,0.331,0.189,0.153,south-southwest,3.3,No
2017/05/20,19:30,0.375,0.228,0.389,0.361,0.327,0.190,0.152,south,3.9,No
2017/05/20,19:40,0.372,0.228,0.393,0.363,0.330,0.189,0.153,south-southwest,3.5,No
2017/05/20,19:50,0.375,0.228,0.390,0.360,0.328,0.189,0.151,south-southwest,2.1,No
2017/05/20,20:00,0.377,0.229,0.396,0.363,0.329,0.189,0.153,southwest,1.4,No
2017/05/20,20:10,0.372,0.228,0.389,0.361,0.330,0.190,0.152,west,0.8,No
2017/05/20,20:20,0.376,0.229,0.394,0.365,0.328,0.190,0.153,west,1.7,No
2017/05/20,20:30,0.372,0.227,0.390,0.361,0.332,0.189,0.153,west,1.9,No
2017/05/20,20:40,0.376,0.228,0.393,0.363,0.327,0.188,0.152,west,1.2,No
2017/05/20,20:50,0.373,0.228,0.391,0.361,0.329,0.191,0.153,northwest,1.1,No
2017/05/20,21:00,0.374,0.228,0.392,0.363,0.329,0.189,0.152,north-northwest,1.1,No
2017/05/20,21:10,0.373,0.229,0.390,0.363,0.331,0.189,0.153,north,1.0,No
2017/05/20,21:20,0.377,0.227,0.393,0.363,0.327,0.189,0.152,-,CALM,No
2017/05/20,21:30,0.373,0.228,0.391,0.362,0.330,0.190,0.154,southwest,1.2,No
2017/05/20,21:40,0.378,0.229,0.394,0.362,0.327,0.188,0.153,west-southwest,2.0,No
2017/05/20,21:50,0.374,0.228,0.390,0.364,0.330,0.189,0.153,west-southwest,3.0,No
2017/05/20,22:00,0.375,0.229,0.393,0.362,0.328,0.189,0.153,west-southwest,3.1,No
2017/05/20,22:10,0.374,0.228,0.391,0.362,0.329,0.189,0.153,west-southwest,2.5,No
2017/05/20,22:20,0.376,0.229,0.394,0.363,0.326,0.190,0.154,west-southwest,1.6,No
2017/05/20,22:30,0.373,0.228,0.390,0.362,0.330,0.189,0.153,west-southwest,1.4,No
2017/05/20,22:40,0.377,0.229,0.392,0.362,0.326,0.190,0.153,west,1.3,No
2017/05/20,22:50,0.375,0.228,0.391,0.362,0.330,0.190,0.153,west-northwest,0.5,No
2017/05/20,23:00,0.375,0.228,0.394,0.363,0.327,0.190,0.154,north-northwest,1.2,No
2017/05/20,23:10,0.371,0.229,0.390,0.363,0.331,0.189,0.153,north-northwest,1.8,No
2017/05/20,23:20,0.377,0.229,0.393,0.363,0.326,0.190,0.153,west,1.6,No
2017/05/20,23:30,0.374,0.228,0.388,0.362,0.330,0.189,0.152,west-northwest,3.0,No
2017/05/20,23:40,0.376,0.228,0.394,0.363,0.326,0.189,0.152,northwest,4.7,No
2017/05/20,23:50,0.372,0.228,0.389,0.360,0.330,0.190,0.153,northwest,5.2,No
